Home > Weather > Barrie > Past weeks

Flag for Canada Past Weather in Barrie, Ontario, Canada — Yesterday and Last 2 Weeks

Now
77 °F

Passing clouds.


Feels Like: 79 °F
Forecast: 61 / 87 °F
Wind: 7 mph from Southwest

Location: Borden

Current Time: Jul 27, 2016 at 9:28:56 AM

Latest Report: Jul 27, 2016 at 9:00 AM


Visibility: 9 mi

Pressure: 29.94 "Hg

Humidity: 65%

Dew Point: 64 °F

Location of BarrieLocation

Past Weather in Barrie — Graph

°F

Barrie Temperature Yesterday

Maximum temperature yesterday: 84 °F (at 4:00 PM)
Minimum temperature yesterday: 61 °F (at 11:00 PM)
Average temperature yesterday: 72 °F

High & Low Weather Summary for the Past Weeks

 TemperatureHumidityPressure
High93 °F (Jul 13, 3:00 PM)100% (Jul 14, 8:00 AM)30.29 "Hg (Jul 14, 8:00 AM)
Low43 °F (Jul 17, 4:00 AM)26% (Jul 22, 4:00 PM)29.69 "Hg (Jul 14, 5:00 AM)
Average72 °F67%29.96 "Hg
* Reported Jul 12 8:00 AM — Jul 27 8:00 AM, Barrie, Weather by CustomWeather, © 2016

Note: Actual official high and low records may vary slightly from our data, if they occured in-between our weather recording intervals... More about our weather records

Advertising

Barrie Weather History for the Previous 24 Hours

Scroll right to see more
 ConditionsComfort  
Time TempWeatherWind HumidityBarometerVisibility
8:00 AM
Wed, Jul 27
70 °FSunny.5 mph83%29.94 "Hg9 mi
7:00 AM63 °FClear.2 mph94%29.95 "Hg9 mi
6:00 AM59 °FClear.No wind94%29.93 "Hg9 mi
5:00 AM57 °FClear.2 mph94%29.94 "Hg9 mi
4:00 AM55 °FClear.No wind100%29.95 "Hg9 mi
3:00 AM57 °FClear.3 mph94%29.96 "Hg9 mi
2:00 AM59 °FClear.No wind94%29.96 "Hg9 mi
1:00 AM59 °FClear.No wind94%29.97 "Hg9 mi
12:00 AM61 °FClear.2 mph88%29.97 "Hg9 mi
11:00 PM
Tue, Jul 26
61 °FClear.3 mph88%29.97 "Hg9 mi
10:00 PM64 °FClear.No wind83%29.96 "Hg9 mi
9:00 PM72 °FSunny.No wind65%29.96 "Hg9 mi
8:00 PM79 °FPassing clouds.6 mph51%29.96 "Hg9 mi
7:00 PM81 °FScattered clouds.8 mph48%29.96 "Hg9 mi
6:00 PM82 °FSunny.9 mph45%29.96 "Hg9 mi
5:00 PM82 °FScattered clouds.12 mph48%29.96 "Hg9 mi
4:00 PM84 °FScattered clouds.8 mph45%29.96 "Hg9 mi
3:00 PM82 °FPassing clouds.9 mph45%29.98 "Hg9 mi
2:00 PM82 °FPassing clouds.13 mph45%29.98 "Hg9 mi
1:00 PM81 °FSunny.9 mph51%30.00 "Hg9 mi
12:00 PM81 °FPassing clouds.13 mph51%30.01 "Hg9 mi
11:00 AM77 °FSunny.10 mph57%30.00 "Hg9 mi
10:00 AM75 °FSunny.8 mph61%29.99 "Hg9 mi
9:00 AM72 °FSunny.8 mph69%29.99 "Hg9 mi
Weather by CustomWeather, © 2016

See weather overviewHow to use our weather pages